Location: Peterborough
(44.3091°N, 78.3197°W)
Time: 04:44:12
(UTC-04:00)

Tiros 1 despin weight - Pass Details

Date: 28 March 2023
Orbit: 586 x 632 km, 48.2° (Epoch: 08 June)

Event Time Altitude Azimuth Distance (km) Brightness Sun altitude
Rises 03:25:00 0° 288° (WNW) 2,841 - -35.0°
Reaches altitude 10° 03:27:34 10° 275° (W) 1,944 - -34.7°
Maximum altitude 03:31:14 25° 220° (SW) 1,222 - -34.2°
Drops below altitude 10° 03:34:57 10° 164° (SSE) 1,962 - -33.8°
Sets 03:37:33 0° 152° (SSE) 2,872 - -33.5°
